Location: Theodore Roosevelt National Park
(46.9990°N, 103.4631°W)
Time: 16:31:45
(UTC-06:00)

Iridium 37 - Visible Passes

Search period start: 06 May 2016 00:00
Search period end: 16 May 2016 00:00
Orbit: 776 x 779 km, 86.4° (Epoch: 06 May)

Date Brightness Start Highest point End Pass type
(mag) Time Alt. Az. Time Alt. Az. Time Alt. Az.
06 May 8.4 04:50:26 10° NNE 04:54:10 19° ENE 04:57:52 10° ESE visible
07 May 9.0 04:18:37 10° NE 04:20:11 11° ENE 04:21:45 10° E visible
09 May 8.0 04:50:04 10° NNE 04:54:28 26° ENE 04:58:49 10° SE visible
10 May 8.5 04:17:26 10° NNE 04:20:34 16° ENE 04:23:41 10° ESE visible
13 May 8.2 04:16:54 10° NNE 04:20:54 22° ENE 04:24:52 10° ESE visible
14 May 8.6 03:44:41 10° NE 03:46:58 13° ENE 03:49:13 10° E visible
